This demonstration page uses our WeatherBlox Daily Observations layout. Learn more.

Left ArrowRight Arrow

Hourly Observations for January 4, 2015

Temp ( °F °C ) Dew Point ( °F °C ) Humidity (%) Winds ( mph kmh ) Pressure ( in mb ) Visibility ( mi km ) Precip ( " mm )
12:15 am 00:15 Cloudy 46 8 N/A N/A WSW 7 11 29.8 1009 0.5 0.80467 N/A
12:35 am 00:35 Cloudy 46 8 N/A N/A W 8 13 29.8 1009 0.5 0.80467 N/A
12:55 am 00:55 Cloudy 46 8 N/A N/A WSW 9 15 29.77 1008 2.5 4.02335 N/A
1:16 am 01:16 Cloudy 46 8 N/A N/A W 8 13 29.77 1008 4 6.43736 N/A
1:35 am 01:35 Cloudy 46 8 N/A N/A WSW 10 17 29.77 1008 3 4.82802 N/A
1:55 am 01:55 Cloudy 46 8 N/A N/A W 13 20 29.77 1008 1.5 2.41401 N/A
2:15 am 02:15 Cloudy 45 7 N/A N/A W 12 19 29.77 1008 1.75 2.816345 N/A
2:35 am 02:35 Cloudy 45 7 N/A N/A WSW 8 13 29.77 1008 3 4.82802 N/A
2:56 am 02:56 Cloudy 45 7 N/A N/A WSW 5 7 29.74 1007 3 4.82802 N/A
3:15 am 03:15 Cloudy 43 6 N/A N/A WSW 6 9 29.74 1007 5 8.0467 N/A
3:35 am 03:35 Cloudy 43 6 N/A N/A WSW 8 13 29.74 1007 5 8.0467 N/A
3:55 am 03:55 Cloudy 43 6 N/A N/A WSW 9 15 29.77 1008 5 8.0467 N/A
4:15 am 04:15 Cloudy 43 6 N/A N/A WSW 10 17 29.77 1008 1.75 2.816345 N/A
4:35 am 04:35 Cloudy 43 6 N/A N/A WSW 16 26 29.77 1008 5 8.0467 N/A
4:55 am 04:55 Cloudy 43 6 N/A N/A SW 15 24 29.77 1008 7 11.26538 N/A
5:15 am 05:15 Cloudy 43 6 N/A N/A WSW 18 30 29.77 1008 10 16.0934 N/A
5:36 am 05:36 Cloudy 43 6 43 6 100 100 WSW 20 31 29.77 1008 10 16.0934 N/A
5:55 am 05:55 Cloudy 43 6 43 6 100 100 WSW 20 31 29.8 1009 10 16.0934 N/A
6:15 am 06:15 Cloudy 41 5 41 5 100 100 WSW 16 26 29.8 1009 10 16.0934 N/A
6:35 am 06:35 Cloudy 41 5 41 5 100 100 W 20 31 29.8 1009 10 16.0934 N/A
6:55 am 06:55 Cloudy 39 4 39 4 100 100 W 18 30 29.8 1009 10 16.0934 N/A
7:15 am 07:15 Cloudy 39 4 39 4 100 100 W 20 31 29.83 1010 10 16.0934 N/A
7:35 am 07:35 Cloudy 39 4 37 3 93 93 WSW 20 31 29.83 1010 10 16.0934 N/A
7:56 am 07:56 Cloudy 39 4 36 2 87 87 W 22 35 29.85 1011 10 16.0934 N/A
8:15 am 08:15 Cloudy 37 3 36 2 93 93 W 24 39 29.85 1011 10 16.0934 N/A
8:35 am 08:35 Cloudy 37 3 36 2 93 93 WSW 20 31 29.88 1012 10 16.0934 N/A
8:55 am 08:55 Cloudy 37 3 37 3 100 100 W 20 31 29.91 1013 10 16.0934 N/A
9:15 am 09:15 Cloudy 37 3 34 1 87 87 W 20 31 29.91 1013 10 16.0934 N/A
9:36 am 09:36 Cloudy 37 3 34 1 87 87 W 21 33 29.94 1014 10 16.0934 N/A
9:55 am 09:55 Cloudy 36 2 36 2 100 100 W 15 24 29.97 1015 7 11.26538 N/A
10:15 am 10:15 Cloudy 36 2 36 2 100 100 W 21 33 29.97 1015 10 16.0934 N/A
10:35 am 10:35 Cloudy 36 2 36 2 100 100 W 18 30 30 1016 10 16.0934 N/A
10:55 am 10:55 Cloudy 36 2 34 1 93 93 W 14 22 30 1016 10 16.0934 N/A
11:15 am 11:15 Cloudy 36 2 34 1 93 93 W 20 31 30 1016 10 16.0934 N/A
11:35 am 11:35 Cloudy 36 2 34 1 93 93 W 21 33 30 1016 10 16.0934 N/A
11:55 am 11:55 Cloudy 34 1 34 1 100 100 W 16 26 30 1016 10 16.0934 N/A
12:15 pm 12:15 Cloudy 34 1 34 1 100 100 W 15 24 30 1016 10 16.0934 N/A
12:35 pm 12:35 Cloudy 34 1 34 1 100 100 W 18 30 30.03 1017 7 11.26538 N/A
12:55 pm 12:55 Cloudy 34 1 34 1 100 100 W 21 33 30 1016 7 11.26538 N/A
1:15 pm 13:15 Cloudy 34 1 32 0 93 93 W 20 31 30.03 1017 7 11.26538 N/A
1:36 pm 13:36 Cloudy 34 1 30 -1 87 87 W 17 28 30.03 1017 7 11.26538 N/A
1:55 pm 13:55 Cloudy 34 1 30 -1 87 87 WNW 17 28 30.03 1017 7 11.26538 N/A
2:15 pm 14:15 Cloudy 34 1 28 -2 81 81 W 24 39 30.06 1018 7 11.26538 N/A
2:35 pm 14:35 Mostly Cloudy 32 0 30 -1 93 93 W 17 28 30.06 1018 5 8.0467 N/A
2:55 pm 14:55 Mostly Cloudy 32 0 30 -1 93 93 W 18 30 30.06 1018 5 8.0467 N/A
3:15 pm 15:15 Cloudy 32 0 30 -1 93 93 W 23 37 30.09 1019 4 6.43736 N/A
3:35 pm 15:35 Cloudy 32 0 30 -1 93 93 W 23 37 30.12 1020 2 3.21868 N/A
3:55 pm 15:55 Cloudy 32 0 32 0 100 100 W 20 31 30.15 1021 2 3.21868 N/A
4:15 pm 16:15 Cloudy 32 0 32 0 100 100 W 24 39 30.18 1022 1.75 2.816345 N/A
4:35 pm 16:35 Mostly Cloudy 30 -1 25 -4 80 80 W 25 41 30.18 1022 5 8.0467 N/A
4:55 pm 16:55 Mostly Cloudy 30 -1 23 -5 75 75 WNW 26 43 30.21 1023 7 11.26538 N/A
5:15 pm 17:15 Cloudy 28 -2 23 -5 80 80 W 21 33 30.24 1024 10 16.0934 N/A
5:35 pm 17:35 Mostly Cloudy 28 -2 23 -5 80 80 W 23 37 30.24 1024 7 11.26538 N/A
5:56 pm 17:56 Mostly Cloudy 27 -3 19 -7 74 74 W 23 37 30.24 1024 10 16.0934 N/A
6:15 pm 18:15 Mostly Cloudy 27 -3 18 -8 69 69 W 23 37 30.27 1025 10 16.0934 N/A
6:35 pm 18:35 Mostly Cloudy 25 -4 16 -9 69 69 WNW 22 35 30.3 1026 10 16.0934 N/A
6:55 pm 18:55 Cloudy 25 -4 14 -10 63 63 WNW 28 44 30.33 1027 10 16.0934 N/A
7:15 pm 19:15 Cloudy 23 -5 12 -11 63 63 WNW 21 33 30.33 1027 10 16.0934 N/A
7:35 pm 19:35 Cloudy 23 -5 12 -11 63 63 WNW 17 28 30.33 1027 10 16.0934 N/A
7:55 pm 19:55 Cloudy 21 -6 12 -11 68 68 WNW 26 43 30.36 1028 10 16.0934 N/A
8:15 pm 20:15 Mostly Cloudy 21 -6 10 -12 63 63 WNW 23 37 30.36 1028 10 16.0934 N/A
8:35 pm 20:35 Cloudy 21 -6 12 -11 68 68 WNW 21 33 30.39 1029 4 6.43736 N/A
8:55 pm 20:55 Mostly Cloudy 19 -7 9 -13 63 63 WNW 23 37 30.39 1029 10 16.0934 N/A
9:16 pm 21:16 Cloudy 19 -7 9 -13 63 63 W 18 30 30.42 1030 7 11.26538 N/A
9:35 pm 21:35 Cloudy 19 -7 9 -13 63 63 WNW 18 30 30.45 1031 4 6.43736 N/A
9:55 pm 21:55 Cloudy 18 -8 7 -14 62 62 WNW 16 26 30.45 1031 10 16.0934 N/A
10:15 pm 22:15 Cloudy 18 -8 9 -13 68 68 W 24 39 30.45 1031 4 6.43736 N/A
10:35 pm 22:35 Cloudy 18 -8 7 -14 62 62 W 25 41 30.48 1032 7 11.26538 N/A
10:55 pm 22:55 Cloudy 16 -9 5 -15 62 62 WNW 20 31 30.48 1032 7 11.26538 N/A
11:15 pm 23:15 Cloudy 16 -9 5 -15 62 62 W 21 33 30.48 1032 5 8.0467 N/A
11:35 pm 23:35 Cloudy 16 -9 7 -14 67 67 W 22 35 30.48 1032 4 6.43736 N/A
11:55 pm 23:55 Mostly Cloudy 14 -10 3 -16 62 62 WNW 17 28 30.53 1034 10 16.0934 N/A

Powered by AerisWeather